Time,TemperatureF,DewpointF,PressureIn,WindDirection,WindDirectionDegrees,WindSpeedMPH,WindSpeedGustMPH,Humidity,HourlyPrecipIn,Conditions,Clouds,dailyrainin,SoftwareType,DateUTC
2013-02-13 00:02:00,18.0,17.0,-100.00,SSE,165,41.0,51.0,92,0.00,,,-99.99,,2013-02-13 07:02:00,
2013-02-13 00:11:00,18.0,17.0,-100.00,SSW,195,40.0,49.0,92,0.00,,,-99.99,,2013-02-13 07:11:00,
2013-02-13 00:21:00,18.0,16.0,-100.00,SW,225,37.0,52.0,92,0.00,,,-99.99,,2013-02-13 07:21:00,
2013-02-13 00:31:00,18.0,17.0,-100.00,SW,220,41.0,52.0,93,0.00,,,-99.99,,2013-02-13 07:31:00,
2013-02-13 00:41:00,18.0,17.0,-100.00,SE,125,41.0,49.0,94,0.00,,,-99.99,,2013-02-13 07:41:00,
2013-02-13 00:51:00,18.0,16.0,-100.00,South,190,42.0,53.0,94,0.00,,,-99.99,,2013-02-13 07:51:00,
2013-02-13 01:01:00,18.0,16.0,-100.00,SE,140,40.0,53.0,94,0.00,,,-99.99,,2013-02-13 08:01:00,
2013-02-13 01:11:00,18.0,17.0,-100.00,South,185,42.0,57.0,95,0.00,,,-99.99,,2013-02-13 08:11:00,
2013-02-13 01:21:00,17.0,17.0,-100.00,SE,145,41.0,56.0,96,0.00,,,-99.99,,2013-02-13 08:21:00,
2013-02-13 01:32:00,18.0,17.0,-100.00,SW,215,40.0,55.0,96,0.00,,,-99.99,,2013-02-13 08:32:00,
2013-02-13 01:43:00,18.0,17.0,-100.00,SSE,150,42.0,52.0,97,0.01,,,-99.99,,2013-02-13 08:43:00,
2013-02-13 01:52:00,18.0,17.0,-100.00,SSE,150,45.0,56.0,96,0.00,,,-99.99,,2013-02-13 08:52:00,
2013-02-13 02:01:00,17.0,17.0,-100.00,SE,145,43.0,54.0,97,0.01,,,-99.99,,2013-02-13 09:01:00,
2013-02-13 02:11:00,17.0,17.0,-100.00,SSE,150,45.0,60.0,98,0.01,,,-99.99,,2013-02-13 09:11:00,
2013-02-13 02:21:00,17.0,17.0,-100.00,SSE,150,50.0,59.0,98,0.03,,,-99.99,,2013-02-13 09:21:00,
2013-02-13 02:31:00,17.0,17.0,-100.00,SSE,155,45.0,62.0,97,0.01,,,-99.99,,2013-02-13 09:31:00,
2013-02-13 02:41:00,17.0,17.0,-100.00,South,175,41.0,53.0,96,0.01,,,-99.99,,2013-02-13 09:41:00,
2013-02-13 02:51:00,18.0,17.0,-100.00,SSW,200,45.0,55.0,96,0.00,,,-99.99,,2013-02-13 09:51:00,
2013-02-13 03:01:00,18.0,17.0,-100.00,SE,145,44.0,57.0,95,0.01,,,-99.99,,2013-02-13 10:01:00,
2013-02-13 03:11:00,18.0,17.0,-100.00,South,190,44.0,57.0,95,0.00,,,-99.99,,2013-02-13 10:11:00,
2013-02-13 03:21:00,18.0,17.0,-100.00,SE,145,44.0,60.0,95,0.00,,,-99.99,,2013-02-13 10:21:00,
2013-02-13 03:32:00,18.0,17.0,-100.00,SSW,200,45.0,54.0,96,0.01,,,-99.99,,2013-02-13 10:32:00,
2013-02-13 03:41:00,18.0,17.0,-100.00,SSE,165,45.0,59.0,96,0.01,,,-99.99,,2013-02-13 10:41:00,
2013-02-13 03:51:00,18.0,17.0,-100.00,South,170,49.0,60.0,97,0.01,,,-99.99,,2013-02-13 10:51:00,
2013-02-13 04:01:00,18.0,17.0,-100.00,SSE,165,47.0,62.0,97,0.00,,,-99.99,,2013-02-13 11:01:00,
2013-02-13 04:11:00,18.0,17.0,-100.00,SSE,150,50.0,60.0,98,0.01,,,-99.99,,2013-02-13 11:11:00,
2013-02-13 04:22:00,18.0,17.0,-100.00,SW,215,48.0,64.0,99,0.03,,,-99.99,,2013-02-13 11:22:00,
2013-02-13 04:32:00,18.0,18.0,-100.00,SSE,150,50.0,61.0,99,0.01,,,-99.99,,2013-02-13 11:32:00,
2013-02-13 04:42:00,18.0,18.0,-100.00,SSE,160,50.0,61.0,99,0.01,,,-99.99,,2013-02-13 11:42:00,
2013-02-13 04:52:00,18.0,18.0,-100.00,South,190,45.0,63.0,99,0.01,,,-99.99,,2013-02-13 11:52:00,
2013-02-13 05:02:00,18.0,18.0,-100.00,SSE,160,50.0,63.0,99,0.03,,,-99.99,,2013-02-13 12:02:00,
2013-02-13 05:11:00,18.0,18.0,-100.00,SSE,155,51.0,65.0,98,0.00,,,-99.99,,2013-02-13 12:11:00,
2013-02-13 05:21:00,18.0,17.0,-100.00,SSW,195,50.0,62.0,97,0.00,,,-99.99,,2013-02-13 12:21:00,
2013-02-13 05:32:00,18.0,17.0,-100.00,SSE,150,47.0,57.0,94,0.00,,,-99.99,,2013-02-13 12:32:00,
2013-02-13 05:42:00,18.0,17.0,-100.00,South,180,44.0,56.0,93,0.00,,,-99.99,,2013-02-13 12:42:00,
2013-02-13 05:52:00,19.0,17.0,-100.00,SSW,205,37.0,49.0,90,0.00,,,-99.99,,2013-02-13 12:52:00,
2013-02-13 06:02:00,19.0,17.0,-100.00,SSW,200,39.0,52.0,89,0.00,,,-99.99,,2013-02-13 13:02:00,
2013-02-13 06:11:00,20.0,17.0,-100.00,SSW,200,42.0,50.0,89,0.00,,,-99.99,,2013-02-13 13:11:00,
2013-02-13 06:21:00,20.0,17.0,-100.00,South,190,44.0,53.0,89,0.00,,,-99.99,,2013-02-13 13:21:00,
2013-02-13 06:32:00,19.0,17.0,-100.00,South,170,45.0,57.0,90,0.00,,,-99.99,,2013-02-13 13:32:00,
2013-02-13 06:41:00,20.0,18.0,-100.00,South,170,37.0,54.0,91,0.00,,,-99.99,,2013-02-13 13:41:00,
2013-02-13 06:51:00,20.0,18.0,-100.00,South,190,42.0,52.0,89,0.00,,,-99.99,,2013-02-13 13:51:00,
2013-02-13 07:01:00,20.0,18.0,-100.00,South,180,39.0,54.0,89,0.00,,,-99.99,,2013-02-13 14:01:00,
2013-02-13 07:11:00,20.0,18.0,-100.00,South,180,45.0,55.0,89,0.00,,,-99.99,,2013-02-13 14:11:00,
2013-02-13 07:21:00,21.0,18.0,-100.00,South,170,45.0,60.0,90,0.00,,,-99.99,,2013-02-13 14:21:00,
2013-02-13 07:31:00,21.0,19.0,-100.00,South,170,48.0,60.0,91,0.00,,,-99.99,,2013-02-13 14:31:00,
2013-02-13 07:41:00,20.0,19.0,-100.00,South,175,49.0,60.0,93,0.00,,,-99.99,,2013-02-13 14:41:00,
2013-02-13 07:52:00,21.0,19.0,-100.00,SSE,155,44.0,61.0,93,0.00,,,-99.99,,2013-02-13 14:52:00,
2013-02-13 08:01:00,21.0,19.0,-100.00,South,185,38.0,54.0,91,0.00,,,-99.99,,2013-02-13 15:01:00,
2013-02-13 08:11:00,21.0,19.0,-100.00,SE,145,40.0,62.0,92,0.00,,,-99.99,,2013-02-13 15:11:00,
2013-02-13 08:21:00,21.0,19.0,-100.00,SSE,160,42.0,57.0,91,0.00,,,-99.99,,2013-02-13 15:21:00,
2013-02-13 08:32:00,21.0,19.0,-100.00,SSE,165,43.0,52.0,91,0.00,,,-99.99,,2013-02-13 15:32:00,
2013-02-13 08:42:00,22.0,20.0,-100.00,South,185,38.0,49.0,93,0.01,,,-99.99,,2013-02-13 15:42:00,
2013-02-13 08:51:00,21.0,20.0,-100.00,SE,145,43.0,52.0,92,0.00,,,-99.99,,2013-02-13 15:51:00,
2013-02-13 09:01:00,21.0,20.0,-100.00,South,180,36.0,47.0,94,0.01,,,-99.99,,2013-02-13 16:01:00,
2013-02-13 09:11:00,21.0,20.0,-100.00,SSE,150,38.0,49.0,97,0.03,,,-99.99,,2013-02-13 16:11:00,
2013-02-13 09:21:00,21.0,20.0,-100.00,SW,215,36.0,47.0,97,0.01,,,-99.99,,2013-02-13 16:21:00,
2013-02-13 09:31:00,22.0,21.0,-100.00,SSE,165,33.0,51.0,96,0.01,,,-99.99,,2013-02-13 16:31:00,
2013-02-13 09:42:00,22.0,20.0,-100.00,SSW,205,34.0,49.0,94,0.00,,,-99.99,,2013-02-13 16:42:00,
2013-02-13 09:51:00,22.0,21.0,-100.00,SSW,205,38.0,51.0,95,0.01,,,-99.99,,2013-02-13 16:51:00,
2013-02-13 10:01:00,22.0,21.0,-100.00,SSW,200,35.0,51.0,95,0.01,,,-99.99,,2013-02-13 17:01:00,
2013-02-13 10:11:00,22.0,21.0,-100.00,SSW,200,39.0,52.0,96,0.01,,,-99.99,,2013-02-13 17:11:00,
2013-02-13 10:21:00,22.0,21.0,-100.00,South,175,38.0,50.0,96,0.00,,,-99.99,,2013-02-13 17:21:00,
2013-02-13 10:31:00,22.0,22.0,-100.00,SE,140,38.0,50.0,96,0.01,,,-99.99,,2013-02-13 17:31:00,
2013-02-13 10:41:00,22.0,22.0,-100.00,SSW,200,41.0,54.0,96,0.00,,,-99.99,,2013-02-13 17:41:00,
2013-02-13 10:52:00,23.0,22.0,-100.00,SSW,210,35.0,52.0,96,0.00,,,-99.99,,2013-02-13 17:52:00,
2013-02-13 11:01:00,24.0,22.0,-100.00,South,175,35.0,49.0,95,0.00,,,-99.99,,2013-02-13 18:01:00,
2013-02-13 11:11:00,24.0,22.0,-100.00,SSW,210,35.0,54.0,94,0.00,,,-99.99,,2013-02-13 18:11:00,
2013-02-13 11:22:00,24.0,23.0,-100.00,SSW,195,30.0,43.0,94,0.00,,,-99.99,,2013-02-13 18:22:00,
2013-02-13 11:41:00,25.0,23.0,-100.00,SSE,150,27.0,42.0,92,0.00,,,-99.99,,2013-02-13 18:41:00,
2013-02-13 11:52:00,25.0,23.0,-100.00,South,170,30.0,39.0,92,0.00,,,-99.99,,2013-02-13 18:52:00,
2013-02-13 12:01:00,24.0,22.0,-100.00,SSW,210,40.0,47.0,92,0.00,,,-99.99,,2013-02-13 19:01:00,
2013-02-13 12:11:00,24.0,22.0,-100.00,SSW,205,37.0,45.0,92,0.00,,,-99.99,,2013-02-13 19:11:00,
2013-02-13 12:21:00,23.0,22.0,-100.00,SSW,195,39.0,50.0,93,0.00,,,-99.99,,2013-02-13 19:21:00,
2013-02-13 12:31:00,24.0,22.0,-100.00,SSW,210,33.0,50.0,95,0.00,,,-99.99,,2013-02-13 19:31:00,
2013-02-13 12:41:00,22.0,21.0,-100.00,South,190,45.0,52.0,95,0.01,,,-99.99,,2013-02-13 19:41:00,
2013-02-13 12:51:00,22.0,21.0,-100.00,SW,220,45.0,55.0,96,0.00,,,-99.99,,2013-02-13 19:51:00,
2013-02-13 13:02:00,23.0,22.0,-100.00,SW,215,37.0,55.0,96,0.00,,,-99.99,,2013-02-13 20:02:00,
2013-02-13 13:11:00,23.0,22.0,-100.00,SSW,195,40.0,49.0,94,0.00,,,-99.99,,2013-02-13 20:11:00,
2013-02-13 13:21:00,24.0,22.0,-100.00,SW,220,37.0,46.0,93,0.00,,,-99.99,,2013-02-13 20:21:00,
2013-02-13 13:31:00,24.0,22.0,-100.00,SSW,195,34.0,51.0,93,0.00,,,-99.99,,2013-02-13 20:31:00,
2013-02-13 13:41:00,24.0,22.0,-100.00,SW,215,42.0,58.0,92,0.00,,,-99.99,,2013-02-13 20:41:00,
2013-02-13 13:52:00,24.0,22.0,-100.00,SSE,160,40.0,52.0,92,0.00,,,-99.99,,2013-02-13 20:52:00,
2013-02-13 14:01:00,24.0,22.0,-100.00,SW,220,42.0,52.0,92,0.00,,,-99.99,,2013-02-13 21:01:00,
2013-02-13 14:11:00,24.0,22.0,-100.00,SW,220,40.0,51.0,92,0.00,,,-99.99,,2013-02-13 21:11:00,
2013-02-13 14:21:00,24.0,22.0,-100.00,SSW,205,38.0,52.0,92,0.00,,,-99.99,,2013-02-13 21:21:00,
2013-02-13 14:31:00,24.0,22.0,-100.00,South,185,35.0,49.0,91,0.00,,,-99.99,,2013-02-13 21:31:00,
2013-02-13 14:42:00,25.0,23.0,-100.00,SW,215,30.0,41.0,91,0.00,,,-99.99,,2013-02-13 21:42:00,
2013-02-13 14:52:00,25.0,23.0,-100.00,South,180,30.0,40.0,90,0.00,,,-99.99,,2013-02-13 21:52:00,
2013-02-13 15:02:00,25.0,22.0,-100.00,West,260,30.0,37.0,91,0.00,,,-99.99,,2013-02-13 22:02:00,
2013-02-13 15:11:00,24.0,22.0,-100.00,South,190,35.0,47.0,92,0.00,,,-99.99,,2013-02-13 22:11:00,
2013-02-13 15:21:00,24.0,23.0,-100.00,SSE,160,34.0,47.0,93,0.00,,,-99.99,,2013-02-13 22:21:00,
2013-02-13 15:31:00,24.0,23.0,-100.00,South,170,39.0,50.0,95,0.00,,,-99.99,,2013-02-13 22:31:00,
2013-02-13 15:42:00,24.0,23.0,-100.00,South,190,34.0,47.0,96,0.00,,,-99.99,,2013-02-13 22:42:00,
2013-02-13 15:51:00,24.0,23.0,-100.00,West,265,35.0,45.0,97,0.00,,,-99.99,,2013-02-13 22:51:00,
2013-02-13 16:01:00,23.0,23.0,-100.00,SSE,160,30.0,42.0,98,0.01,,,-99.99,,2013-02-13 23:01:00,
2013-02-13 16:11:00,23.0,23.0,-100.00,SSE,155,30.0,43.0,99,0.01,,,-99.99,,2013-02-13 23:11:00,
2013-02-13 16:21:00,23.0,23.0,-100.00,SSW,210,29.0,41.0,99,0.01,,,-99.99,,2013-02-13 23:21:00,
2013-02-13 16:32:00,23.0,23.0,-100.00,South,190,31.0,40.0,99,0.01,,,-99.99,,2013-02-13 23:32:00,
2013-02-13 16:41:00,23.0,23.0,-100.00,WSW,255,34.0,42.0,99,0.01,,,-99.99,,2013-02-13 23:41:00,
2013-02-13 16:52:00,23.0,23.0,-100.00,SW,215,33.0,43.0,99,0.01,,,-99.99,,2013-02-13 23:52:00,
2013-02-13 17:02:00,23.0,23.0,-100.00,South,190,33.0,45.0,99,0.00,,,-99.99,,2013-02-14 00:02:00,
2013-02-13 17:11:00,23.0,23.0,-100.00,South,175,32.0,44.0,99,0.00,,,-99.99,,2013-02-14 00:11:00,
2013-02-13 17:21:00,23.0,23.0,-100.00,SSW,195,31.0,42.0,99,0.01,,,-99.99,,2013-02-14 00:21:00,
2013-02-13 17:32:00,23.0,23.0,-100.00,SSW,195,28.0,42.0,99,0.00,,,-99.99,,2013-02-14 00:32:00,
2013-02-13 17:42:00,23.0,23.0,-100.00,SSW,210,32.0,40.0,99,0.00,,,-99.99,,2013-02-14 00:42:00,
2013-02-13 17:51:00,23.0,23.0,-100.00,South,175,29.0,40.0,99,0.00,,,-99.99,,2013-02-14 00:51:00,
2013-02-13 18:01:00,23.0,23.0,-100.00,SW,215,28.0,37.0,99,0.00,,,-99.99,,2013-02-14 01:01:00,
2013-02-13 18:11:00,24.0,24.0,-100.00,SSW,200,27.0,39.0,99,0.00,,,-99.99,,2013-02-14 01:11:00,
2013-02-13 18:21:00,24.0,23.0,-100.00,South,175,35.0,46.0,99,0.00,,,-99.99,,2013-02-14 01:21:00,
2013-02-13 18:31:00,24.0,23.0,-100.00,SSW,205,28.0,38.0,98,0.00,,,-99.99,,2013-02-14 01:31:00,
2013-02-13 18:41:00,24.0,23.0,-100.00,SSW,195,28.0,37.0,97,0.00,,,-99.99,,2013-02-14 01:41:00,
2013-02-13 18:51:00,24.0,24.0,-100.00,South,180,23.0,35.0,96,0.00,,,-99.99,,2013-02-14 01:51:00,
2013-02-13 19:01:00,24.0,24.0,-100.00,South,180,24.0,37.0,97,0.00,,,-99.99,,2013-02-14 02:01:00,
2013-02-13 19:11:00,24.0,24.0,-100.00,South,170,28.0,35.0,97,0.00,,,-99.99,,2013-02-14 02:11:00,
2013-02-13 19:21:00,24.0,24.0,-100.00,South,170,27.0,35.0,96,0.00,,,-99.99,,2013-02-14 02:21:00,
2013-02-13 19:31:00,24.0,24.0,-100.00,South,170,30.0,40.0,96,0.00,,,-99.99,,2013-02-14 02:31:00,
2013-02-13 19:41:00,24.0,24.0,-100.00,South,170,30.0,40.0,96,0.00,,,-99.99,,2013-02-14 02:41:00,
2013-02-13 19:51:00,24.0,24.0,-100.00,South,170,30.0,40.0,96,0.00,,,-99.99,,2013-02-14 02:51:00,
2013-02-13 20:02:00,24.0,23.0,-100.00,South,190,26.0,34.0,96,0.00,,,-99.99,,2013-02-14 03:02:00,
2013-02-13 20:11:00,24.0,23.0,-100.00,South,175,26.0,35.0,96,0.00,,,-99.99,,2013-02-14 03:11:00,
2013-02-13 20:21:00,24.0,23.0,-100.00,SSW,195,26.0,37.0,96,0.00,,,-99.99,,2013-02-14 03:21:00,
2013-02-13 20:31:00,24.0,23.0,-100.00,South,170,34.0,44.0,96,0.00,,,-99.99,,2013-02-14 03:31:00,
2013-02-13 20:42:00,24.0,23.0,-100.00,SSW,200,29.0,39.0,96,0.00,,,-99.99,,2013-02-14 03:42:00,
2013-02-13 20:51:00,24.0,23.0,-100.00,South,175,26.0,35.0,97,0.00,,,-99.99,,2013-02-14 03:51:00,
2013-02-13 21:01:00,24.0,23.0,-100.00,SSW,195,23.0,34.0,97,0.00,,,-99.99,,2013-02-14 04:01:00,
2013-02-13 21:11:00,24.0,23.0,-100.00,South,170,28.0,35.0,97,0.00,,,-99.99,,2013-02-14 04:11:00,
2013-02-13 21:21:00,23.0,23.0,-100.00,South,185,28.0,34.0,98,0.00,,,-99.99,,2013-02-14 04:21:00,
2013-02-13 21:31:00,23.0,23.0,-100.00,SW,215,32.0,38.0,98,0.00,,,-99.99,,2013-02-14 04:31:00,
2013-02-13 21:41:00,23.0,23.0,-100.00,SW,220,28.0,40.0,98,0.00,,,-99.99,,2013-02-14 04:41:00,
2013-02-13 21:51:00,23.0,23.0,-100.00,South,190,30.0,39.0,97,0.00,,,-99.99,,2013-02-14 04:51:00,
2013-02-13 22:02:00,23.0,23.0,-100.00,SSE,155,31.0,42.0,99,0.00,,,-99.99,,2013-02-14 05:02:00,
2013-02-13 22:11:00,23.0,22.0,-100.00,SW,225,29.0,40.0,98,0.00,,,-99.99,,2013-02-14 05:11:00,
2013-02-13 22:21:00,23.0,22.0,-100.00,SSW,200,27.0,41.0,97,0.00,,,-99.99,,2013-02-14 05:21:00,
2013-02-13 22:31:00,23.0,23.0,-100.00,SW,215,30.0,37.0,99,0.00,,,-99.99,,2013-02-14 05:31:00,
2013-02-13 22:41:00,22.0,22.0,-100.00,SSW,205,26.0,36.0,99,0.01,,,-99.99,,2013-02-14 05:41:00,
2013-02-13 22:52:00,22.0,22.0,-100.00,SSW,195,29.0,33.0,99,0.01,,,-99.99,,2013-02-14 05:52:00,
2013-02-13 23:02:00,22.0,22.0,-100.00,SSE,150,29.0,39.0,99,0.01,,,-99.99,,2013-02-14 06:02:00,
2013-02-13 23:11:00,22.0,22.0,-100.00,WSW,255,29.0,39.0,99,0.01,,,-99.99,,2013-02-14 06:11:00,
2013-02-13 23:21:00,22.0,22.0,-100.00,SSW,200,32.0,39.0,99,0.01,,,-99.99,,2013-02-14 06:21:00,
2013-02-13 23:31:00,22.0,22.0,-100.00,SW,215,27.0,36.0,99,0.03,,,-99.99,,2013-02-14 06:31:00,
2013-02-13 23:41:00,22.0,22.0,-100.00,South,175,27.0,37.0,99,0.01,,,-99.99,,2013-02-14 06:41:00,
2013-02-13 23:51:00,22.0,22.0,-100.00,South,170,24.0,35.0,99,0.01,,,-99.99,,2013-02-14 06:51:00,